Lid_Strength_Index
8 8 8 8 8 8 9 9 10 11 11 9 7 7 6 6 6 6 7 6 5 5 5 6 7 7 6 7 6 6 5 5 5 4 4 4 4 5 5 6 6 6 7 7
10 8 8 9 8 8 9 9 9 9 10 6 5 5 6 6 6 7 6 5 5 6 7 8 8 7 7 7 7 6 6 6 5 4 4 4 5 5 6 6 6 6 7 7
12 9 9 12 9 9 9 8 8 11 9 6 7 6 6 6 6 6 6 5 6 6 7 7 7 7 7 7 6 6 6 6 5 5 5 5 5 6 6 6 6 7 7 7
11 10 16 10 7 7 8 8 7 7 7 6 6 5 5 5 5 5 5 6 6 7 8 7 7 7 7 7 7 7 7 7 5 5 5 5 6 6 6 6 7 7 7 8
13 12 10 9 8 8 9 9 6 7 6 6 5 6 6 5 4 4 5 5 7 7 7 7 7 7 7 7 7 7 7 6 6 5 6 6 6 7 6 7 7 8 8 8
12 13 14 9 6 5 5 11 6 6 6 6 6 9 7 5 4 5 6 7 8 7 7 7 7 7 8 8 8 8 7 6 5 5 6 6 6 7 7 7 7 8 8 8
11 12 10 6 6 5 11 9 6 5 5 5 6 5 6 5 6 6 7 8 7 7 8 8 7 8 8 8 8 7 7 6 6 6 6 6 6 6 7 7 7 7 8 8
10 12 15 5 6 8 7 5 5 5 5 5 5 6 6 6 7 8 8 8 8 8 8 8 8 8 9 9 8 7 7 7 6 6 6 7 6 7 7 7 8 8 9 9
9 9 6 4 5 4 4 5 5 4 4 5 6 7 6 7 8 8 8 8 8 9 8 8 8 8 9 8 8 7 7 7 7 6 6 6 7 7 8 8 9 9 10 9
9 8 6 5 4 4 3 4 3 3 4 5 6 6 7 8 9 9 9 9 9 9 9 9 8 8 8 8 7 7 8 8 7 7 6 6 7 7 8 9 9 10 10 10
9 7 6 6 4 4 4 3 4 4 4 5 6 7 8 8 9 9 9 9 9 9 9 9 8 8 8 8 8 8 8 8 7 7 7 7 7 8 8 8 9 10 11 11
8 6 5 6 4 4 5 4 4 5 5 5 6 7 8 9 8 9 9 9 9 9 10 9 8 8 8 7 8 8 9 8 9 8 7 7 7 7 9 9 9 10 11 11
6 4 4 4 4 4 4 4 4 5 5 6 7 8 8 9 8 9 9 9 9 9 10 9 8 8 8 7 8 9 9 9 8 8 8 8 8 8 8 7 8 9 10 10
4 5 6 5 6 5 4 5 5 5 5 7 8 8 8 9 9 9 10 9 10 10 10 9 8 8 8 8 8 8 8 11 8 8 8 8 8 8 8 8 9 9 9 9
5 4 5 5 5 6 5 5 6 7 8 9 8 8 8 9 10 11 11 11 11 11 10 9 8 8 8 8 9 9 9 8 8 8 8 9 8 8 8 9 9 9 9 10
5 5 6 7 7 6 6 6 7 8 9 9 9 9 9 9 12 12 12 11 11 11 10 10 9 8 8 8 9 8 9 11 10 8 9 9 9 9 9 9 10 10 10 12
7 7 7 7 7 6 6 6 7 8 9 9 9 8 12 13 13 12 12 10 10 10 9 10 10 8 8 9 8 8 8 8 11 9 9 10 10 10 10 10 11 11 11 11
4 4 5 5 6 6 6 6 7 8 9 9 9 13 13 13 12 13 12 10 10 10 9 9 9 10 8 9 8 8 8 8 8 9 10 10 10 10 11 11 11 11 11 11
4 5 5 5 5 6 6 7 8 8 10 13 14 13 13 12 12 12 11 12 13 12 11 9 12 10 9 11 9 8 8 9 9 9 10 11 11 11 12 12 12 11 12 12
5 5 5 5 5 6 8 8 10 13 14 13 13 13 13 13 13 13 12 12 10 9 9 9 9 9 9 11 11 8 8 9 10 11 10 10 11 11 12 13 13 12 12 12
6 6 6 8 11 11 11 12 13 14 14 14 13 13 13 13 13 13 12 11 10 10 9 11 8 8 9 10 10 8 8 9 10 10 11 11 11 11 12 12 12 12 12 12
6 7 9 9 10 12 12 10 11 14 14 14 13 14 14 13 13 12 11 10 9 12 10 9 8 10 10 12 9 9 9 10 10 10 10 11 11 12 12 12 12 13 13 13
6 7 7 8 9 9 9 9 13 13 14 14 14 13 11 11 11 11 12 9 9 11 9 8 11 13 13 9 9 9 10 10 11 11 11 11 11 12 12 13 13 13 13 13
7 7 7 7 8 8 9 11 10 12 13 13 13 12 10 11 10 9 8 11 12 12 9 10 12 13 12 9 9 10 10 10 11 11 12 13 12 12 13 13 13 13 13 14
7 6 7 8 8 8 9 9 10 10 11 10 11 10 9 8 9 9 9 10 12 10 9 13 13 13 10 10 10 10 10 11 12 11 12 12 13 13 13 13 14 14 14 14
7 7 7 7 7 8 8 9 9 10 10 10 10 9 9 8 8 9 9 10 10 11 10 12 12 12 11 10 10 10 11 11 12 12 11 12 13 13 13 14 14 14 14 15
6 8 7 7 7 7 8 8 8 9 9 9 10 9 9 9 9 9 10 10 9 10 11 12 11 11 10 10 10 10 11 11 12 12 12 11 12 13 13 13 14 14 14 15